TimeGMT,TemperatureF,Dew PointF,Humidity,Sea Level PressureIn,VisibilityMPH,Wind Direction,Wind SpeedMPH,Gust SpeedMPH,PrecipitationIn,Events,Conditions,WindDirDegrees,DateUTC
12:50 AM,42.8,37.4,81,29.89,6.2,NNW,17.3,29.9,N/A,,Mostly Cloudy,340,2013-01-15 00:50:00
1:50 AM,42.8,39.2,87,29.89,6.2,NNW,17.3,34.5,N/A,,Mostly Cloudy,340,2013-01-15 01:50:00
2:50 AM,43,39,81,29.91,12,North,17.3,,,,Mostly Cloudy,350,2013-01-15 02:50:00
2:50 AM,42.8,39.2,87,29.89,6.2,North,17.3,34.5,N/A,,Mostly Cloudy,350,2013-01-15 02:50:00
3:50 AM,41.0,37.4,87,29.89,6.2,North,18.4,32.2,N/A,,Partly Cloudy,350,2013-01-15 03:50:00
4:50 AM,41.0,37.4,87,29.89,6.2,North,15.0,26.5,N/A,,Partly Cloudy,350,2013-01-15 04:50:00
5:50 AM,42,37,78,29.91,12,North,15.0,,,,Scattered Clouds,0,2013-01-15 05:50:00
5:50 AM,41.0,37.4,87,29.89,6.2,North,15.0,26.5,N/A,,Partly Cloudy,360,2013-01-15 05:50:00
6:50 AM,41.0,37.4,87,29.92,6.2,North,11.5,-,N/A,,Scattered Clouds,350,2013-01-15 06:50:00
7:50 AM,41.0,37.4,87,29.92,6.2,North,8.1,-,N/A,,Mostly Cloudy,350,2013-01-15 07:50:00
8:50 AM,42,38,81,29.96,10,NW,4.6,,,,Haze,310,2013-01-15 08:50:00
8:50 AM,41.0,37.4,87,29.95,6.2,NW,4.6,-,N/A,,Haze,310,2013-01-15 08:50:00
9:50 AM,42.8,39.2,87,29.95,6.2,NW,8.1,-,N/A,,Scattered Clouds,320,2013-01-15 09:50:00
10:50 AM,44.6,39.2,81,29.95,6.2,NNW,8.1,-,N/A,,Mostly Cloudy,340,2013-01-15 10:50:00
11:50 AM,44,39,75,29.96,12,NNW,6.9,,,,Partly Cloudy,330,2013-01-15 11:50:00
11:50 AM,44.6,39.2,81,29.95,6.2,NNW,6.9,-,N/A,,Scattered Clouds,330,2013-01-15 11:50:00
12:50 PM,44.6,39.2,81,29.92,6.2,NNW,9.2,-,N/A,,Scattered Clouds,330,2013-01-15 12:50:00
1:50 PM,44.6,39.2,81,29.89,6.2,WNW,8.1,-,N/A,,Scattered Clouds,300,2013-01-15 13:50:00
2:50 PM,44,38,73,29.91,12,NW,5.8,,,,Scattered Clouds,320,2013-01-15 14:50:00
2:50 PM,44.6,39.2,81,29.89,6.2,NW,5.8,-,N/A,,Mostly Cloudy,320,2013-01-15 14:50:00
3:50 PM,42.8,39.2,87,29.89,6.2,NW,4.6,-,N/A,,Mostly Cloudy,310,2013-01-15 15:50:00
4:50 PM,42.8,37.4,81,29.86,6.2,NW,4.6,-,N/A,,Overcast,320,2013-01-15 16:50:00
5:50 PM,42,37,75,29.87,12,NNW,2.3,,,,Overcast,330,2013-01-15 17:50:00
5:50 PM,41.0,37.4,87,29.86,6.2,NNW,2.3,-,N/A,,Mostly Cloudy,330,2013-01-15 17:50:00
6:50 PM,39.2,37.4,93,29.83,6.2,ESE,3.5,-,N/A,,Mostly Cloudy,120,2013-01-15 18:50:00
7:50 PM,39.2,37.4,93,29.80,6.2,ESE,6.9,-,N/A,,Mostly Cloudy,120,2013-01-15 19:50:00
8:50 PM,40,38,88,29.80,9,ESE,9.2,,,Rain,Light Rain,120,2013-01-15 20:50:00
8:50 PM,41.0,37.4,87,29.77,6.2,ESE,9.2,-,N/A,Rain,Light Rain,120,2013-01-15 20:50:00
9:50 PM,41.0,39.2,93,29.74,6.2,ESE,10.4,-,N/A,Rain,Light Rain,120,2013-01-15 21:50:00
10:50 PM,41.0,39.2,93,29.71,6.2,ESE,15.0,-,N/A,Rain,Light Rain,120,2013-01-15 22:50:00
11:50 PM,41,39,91,29.72,7,ESE,12.7,,,Rain,Light Rain,110,2013-01-15 23:50:00
11:50 PM,41.0,39.2,93,29.68,6.2,ESE,12.7,-,N/A,Rain,Light Rain,110,2013-01-15 23:50:00